WHDW 10-06

operational
NORAD ID: 65310 Int'l Des: 2025-187 Owner: ZXW Country: CN
LEOCIRCULAR

关于 WHDW 10-06

正在加载描述...

实时位置

正在加载3D地球...

即将过境

高度历史

Altitude vs Time

uPlot chart will show altitude changes over time

两行轨道根数

1 65310U 25187F 26061.58298579 -.00000103 00000-0 45995-4 0 9997
2 65310 50.0094 228.0803 0001035 129.6685 230.4279 13.29341441 25527
Epoch: Mar 2, 2026 • Age: 28 hours

当前状态

高度 1160.7 km
速度 7.27 km/s
星下点 -36.12°S, 134°W
发射日期 Aug 25, 2025
运行时间 0.5 years
类型 other

技术详情

分类 Payload
质量 800.00 kg
干质量 800.00 kg
总质量 800.00 kg
长度 3.00 m
直径 1.00 m
跨度 10.00 m
形状 Box + 2 Pan
制造商 SECM
平台类型 Xingwang S
阶段状态 In Orbit
所有者/国家 ZXW/CN

大型星座

Loading constellations...